Retour au catalogue

COSMOS 1691 DEB

ActifPO
NORAD 43316·DEBRIS·🇷🇺 Russia

Lancé Oct 9, 1985 depuis Plesetsk Cosmodrome

Loading…

Prochains Passages (prochaines 24 heures)

TLE

FraisSource: Space-Track

Époque: Sep 14, 2026, 11:06 UTC

1 43316U 85094AA  26257.46306657  .00000502  00000-0  24307-2 0  9997
2 43316  82.6047 146.8471 0007824 227.8282 132.2151 12.71368625 86908

Suivez COSMOS 1691 DEB en temps réel avec AllMySat

Download on the App Store